EW2642 Weather Reports


Display with metric or nautical units.
time (UTC)temp
F
wind
direction
speed
MPH
gust
MPH
rain 1hr
in
rain 24hr
in
rain mn
in
humidity
%
barometer
mb
20260505193026 73 312 8.0 22.0 0.00 0.00 0.00 26 1013.3
20260505191507 69 5 8.0 18.0 0.00 0.00 0.00 28 1013.3
20260505190010 71 350 9.0 18.0 0.00 0.00 0.00 28 1013.2
20260505184525 70 360 9.0 18.0 0.00 0.00 0.00 29 1013.2
20260505183012 71 5 12.0 16.0 0.00 0.00 0.00 27 1013.2
20260505181522 71 316 12.0 16.0 0.00 0.00 0.00 29 1013.2
20260505180007 70 314 7.0 16.0 0.00 0.00 0.00 29 1013.1
20260505174523 68 25 9.0 19.0 0.00 0.00 0.00 30 1013.2
20260505173008 69 5 7.0 16.0 0.00 0.00 0.00 32 1013.1
20260505171513 69 302 7.0 17.0 0.00 0.00 0.00 32 1013.0
20260505170014 67 327 9.0 16.0 0.00 0.00 0.00 32 1013.0
20260505164523 67 11 7.0 18.0 0.00 0.00 0.00 34 1012.9
20260505163026 66 346 6.0 19.0 0.00 0.00 0.00 38 1012.9
20260505161524 66 312 7.0 15.0 0.00 0.00 0.00 39 1012.9
20260505153034 63 330 11.0 17.0 0.00 0.00 0.00 44 1012.7
20260505151508 62 352 10.0 17.0 0.00 0.00 0.00 46 1012.7
20260505124515 53 298 9.0 15.0 0.00 0.00 0.00 54 1011.2
20260505123011 53 321 10.0 17.0 0.00 0.00 0.00 53 1011.1
20260505121514 54 336 11.0 17.0 0.00 0.00 0.00 52 1010.9
20260505120011 53 341 9.0 18.0 0.00 0.00 0.00 51 1010.9
20260505114512 53 327 11.0 19.0 0.00 0.00 0.00 50 1010.8
20260505113012 53 330 11.0 16.0 0.00 0.00 0.00 50 1010.9
20260505111510 54 321 10.0 15.0 0.00 0.00 0.00 48 1010.9
20260505101508 54 318 9.0 13.0 0.00 0.00 0.00 45 1010.7
20260505100012 54 312 5.0 10.0 0.00 0.00 0.00 45 1010.6
20260505094511 55 314 4.0 9.0 0.00 0.00 0.00 44 1010.7
20260505093010 55 315 4.0 10.0 0.00 0.00 0.00 43 1010.6
20260505091510 55 315 5.0 10.0 0.00 0.00 0.00 43 1010.5
20260505090012 55 325 7.0 12.0 0.00 0.00 0.00 43 1010.3
20260505084517 56 333 7.0 15.0 0.00 0.00 0.00 42 1010.2
20260505083014 56 349 10.0 15.0 0.00 0.00 0.00 41 1010.2
20260505081513 56 323 10.0 15.0 0.00 0.00 0.00 40 1010.2
20260505080028 57 347 10.0 17.0 0.00 0.00 0.00 40 1010.2
20260505074527 57 352 10.0 17.0 0.00 0.00 0.00 39 1010.3
20260505073031 57 312 10.0 16.0 0.00 0.00 0.00 39 1010.2
20260505071536 57 342 11.0 16.0 0.00 0.00 0.00 39 1010.3
20260505070038 57 340 11.0 21.0 0.00 0.00 0.00 39 1010.1
20260505064549 58 327 12.0 18.0 0.00 0.00 0.00 38 1009.9
20260505063031 59 343 13.0 20.0 0.00 0.00 0.00 37 1009.7
20260505061518 59 331 11.0 19.0 0.00 0.00 0.00 37 1009.7
20260505060012 60 321 12.0 18.0 0.00 0.00 0.00 36 1009.7
20260505054511 60 322 11.0 19.0 0.00 0.00 0.00 35 1009.7
20260505053011 61 308 11.0 19.0 0.00 0.00 0.00 34 1009.8
20260505051509 62 329 14.0 20.0 0.00 0.00 0.00 33 1009.8
20260505041522 63 360 11.0 19.0 0.00 0.00 0.00 33 1009.5
20260505040013 64 5 10.0 16.0 0.00 0.00 0.00 34 1009.5
20260505034509 64 326 10.0 15.0 0.00 0.00 0.00 33 1009.3
20260505033008 65 333 9.0 16.0 0.00 0.00 0.00 32 1009.4
20260505031508 66 340 9.0 16.0 0.00 0.00 0.00 31 1009.2
20260505030030 67 328 8.0 13.0 0.00 0.00 0.00 30 1009.0
20260505024531 68 341 8.0 15.0 0.00 0.00 0.00 29 1008.9
20260505023011 69 327 10.0 17.0 0.00 0.00 0.00 28 1008.6
20260505021530 70 337 11.0 17.0 0.00 0.00 0.00 28 1008.7
20260505020010 70 5 10.0 21.0 0.00 0.00 0.00 27 1008.6
20260505014536 71 341 10.0 19.0 0.00 0.00 0.00 26 1008.6
20260505013019 72 317 10.0 16.0 0.00 0.00 0.00 26 1008.7
20260505011511 73 305 7.0 16.0 0.00 0.00 0.00 25 1008.8
20260505010010 74 317 8.0 16.0 0.00 0.00 0.00 24 1008.8
20260505004512 74 13 9.0 17.0 0.00 0.00 0.00 24 1008.9
20260505003013 73 344 8.0 15.0 0.00 0.00 0.00 24 1009.0
20260505001515 75 338 10.0 18.0 0.00 0.00 0.00 23 1009.1
20260505000025 75 351 9.0 23.0 0.00 0.00 0.00 22 1009.1
20260504234512 72 352 6.0 17.0 0.00 0.00 0.00 25 1009.2
20260504233030 74 309 12.0 18.0 0.00 0.00 0.00 24 1009.1
20260504231535 75 298 10.0 17.0 0.00 0.00 0.00 23 1009.4
20260504230015 75 330 9.0 17.0 0.00 0.00 0.00 23 1009.5
20260504224509 74 342 6.0 16.0 0.00 0.00 0.00 24 1009.5
20260504223031 76 315 13.0 21.0 0.00 0.00 0.00 23 1009.7
20260504221530 74 310 9.0 16.0 0.00 0.00 0.00 23 1009.8
20260504220034 76 333 8.0 14.0 0.00 0.00 0.00 22 1009.9
20260504214527 73 28 4.0 11.0 0.00 0.00 0.00 23 1010.1
20260504213027 75 346 7.0 15.0 0.00 0.00 0.00 22 1010.2
20260504211530 74 313 4.0 15.0 0.00 0.00 0.00 24 1010.5
20260504210012 75 334 8.0 14.0 0.00 0.00 0.00 22 1010.3
20260504204528 74 321 5.0 15.0 0.00 0.00 0.00 23 1010.6
20260504203020 74 322 12.0 19.0 0.00 0.00 0.00 22 1010.6
20260504201510 74 10 10.0 17.0 0.00 0.00 0.00 22 1010.6
20260504200010 74 324 10.0 16.0 0.00 0.00 0.00 22 1010.7
20260504194525 74 339 7.0 11.0 0.00 0.00 0.00 22 1010.8